PTDKK UNKL-USSS

Flight info

Callsign PTDKK
Flight time N/A
Altitude FL400
Route APRUS B800 ADONI A300 TOKMO G827 TUPIM/K0857F430 G827 KENGA A300 KZ R244 RUBOR T448 BANAM/K0848F400 T448 SOPUS S
Aircraft FA50/M-S/N

Departure

Time 2026-05-08 01:35
Airport Krasnoyarsk International Airport (UNKL)

Arrival

Time N/A
Airport Koltsovo Airport (USSS)
Time Latitude Longitude Altitude Speed Heading
2026-05-08 01:13 56.18098 92.46804 946 ft 0 kts 203°
2026-05-08 01:15 56.18097 92.46804 946 ft 0 kts 203°
2026-05-08 01:16 56.18095 92.46803 946 ft 1 kts 189°
2026-05-08 01:16 56.18082 92.46823 946 ft 7 kts 117°
2026-05-08 01:17 56.18030 92.46894 946 ft 13 kts 191°
2026-05-08 01:17 56.17958 92.46983 946 ft 14 kts 112°
2026-05-08 01:17 56.17924 92.47144 946 ft 15 kts 111°
2026-05-08 01:17 56.17884 92.47313 946 ft 17 kts 115°
2026-05-08 01:18 56.17836 92.47522 946 ft 19 kts 113°
2026-05-08 01:18 56.17781 92.47740 946 ft 14 kts 114°
2026-05-08 01:18 56.17742 92.47902 946 ft 15 kts 122°
2026-05-08 01:18 56.17694 92.48085 946 ft 17 kts 113°
2026-05-08 01:19 56.17646 92.48292 946 ft 19 kts 112°
2026-05-08 01:19 56.17599 92.48490 946 ft 20 kts 113°
2026-05-08 01:19 56.17544 92.48737 946 ft 22 kts 111°
2026-05-08 01:19 56.17478 92.48979 946 ft 21 kts 132°
2026-05-08 01:20 56.17352 92.49123 946 ft 21 kts 154°
2026-05-08 01:20 56.17315 92.49154 946 ft 0 kts 154°
2026-05-08 01:22 56.17315 92.49155 946 ft 0 kts 154°
2026-05-08 01:24 56.17314 92.49155 946 ft 0 kts 154°
2026-05-08 01:24 56.17299 92.49169 946 ft 6 kts 154°
2026-05-08 01:24 56.17242 92.49227 946 ft 15 kts 140°
2026-05-08 01:25 56.17165 92.49464 946 ft 29 kts 114°
2026-05-08 01:25 56.17060 92.49873 946 ft 42 kts 116°
2026-05-08 01:25 56.16928 92.50389 946 ft 49 kts 114°
2026-05-08 01:25 56.16775 92.50982 946 ft 55 kts 117°
2026-05-08 01:26 56.16623 92.51580 946 ft 50 kts 114°
2026-05-08 01:26 56.16571 92.51860 946 ft 4 kts 327°
2026-05-08 01:26 56.16575 92.51850 946 ft 0 kts 297°
2026-05-08 01:34 56.16575 92.51849 946 ft 0 kts 297°
2026-05-08 01:34 56.16596 92.51769 946 ft 28 kts 294°
2026-05-08 01:34 56.16759 92.51037 946 ft 98 kts 297°
2026-05-08 01:35 56.17128 92.49559 948 ft 159 kts 292°
2026-05-08 01:35 56.17608 92.47582 1318 ft 191 kts 293°
2026-05-08 01:35 56.18216 92.45183 1912 ft 229 kts 294°
2026-05-08 01:35 56.18924 92.42387 2452 ft 272 kts 292°
2026-05-08 01:36 56.19726 92.39072 3060 ft 305 kts 291°
2026-05-08 01:36 56.20477 92.35911 3687 ft 311 kts 291°
2026-05-08 01:36 56.21321 92.32338 4577 ft 313 kts 290°
2026-05-08 01:36 56.21787 92.28730 6026 ft 286 kts 271°
2026-05-08 01:37 56.21457 92.25393 7518 ft 257 kts 250°
2026-05-08 01:37 56.20797 92.22467 8734 ft 256 kts 249°
2026-05-08 01:37 56.20143 92.19509 9884 ft 258 kts 250°
2026-05-08 01:37 56.19489 92.16531 10945 ft 259 kts 250°
2026-05-08 01:38 56.18823 92.13510 11947 ft 261 kts 251°
2026-05-08 01:38 56.18155 92.10483 12885 ft 263 kts 251°
2026-05-08 01:38 56.17477 92.07424 13781 ft 266 kts 251°
2026-05-08 01:38 56.16791 92.04333 14636 ft 268 kts 250°
2026-05-08 01:39 56.16096 92.01214 15457 ft 271 kts 250°
2026-05-08 01:39 56.15396 91.98076 16251 ft 273 kts 250°
2026-05-08 01:39 56.14686 91.94902 17006 ft 275 kts 250°
2026-05-08 01:39 56.13973 91.91716 17725 ft 278 kts 250°
2026-05-08 01:40 56.13250 91.88492 18416 ft 280 kts 250°
2026-05-08 01:40 56.12535 91.85307 19067 ft 282 kts 250°
2026-05-08 01:40 56.11798 91.82029 19706 ft 285 kts 250°
2026-05-08 01:40 56.11057 91.78743 20324 ft 287 kts 250°
2026-05-08 01:41 56.10307 91.75416 20917 ft 289 kts 250°
2026-05-08 01:41 56.09551 91.72072 21475 ft 292 kts 250°
2026-05-08 01:41 56.08785 91.68687 22037 ft 294 kts 250°
2026-05-08 01:41 56.08016 91.65298 22568 ft 296 kts 250°
2026-05-08 01:42 56.07242 91.61888 23077 ft 298 kts 250°
2026-05-08 01:42 56.06462 91.58458 23568 ft 300 kts 249°
2026-05-08 01:42 56.05674 91.54998 24045 ft 302 kts 249°
2026-05-08 01:42 56.04878 91.51513 24511 ft 303 kts 250°
2026-05-08 01:43 56.04096 91.48092 24977 ft 304 kts 250°
2026-05-08 01:43 56.03293 91.44588 25435 ft 305 kts 250°
2026-05-08 01:43 56.02488 91.41078 25868 ft 306 kts 250°
2026-05-08 01:43 56.01683 91.37571 26287 ft 307 kts 250°
2026-05-08 01:44 56.00873 91.34053 26699 ft 307 kts 250°
2026-05-08 01:44 56.00061 91.30527 27090 ft 308 kts 251°
2026-05-08 01:44 55.99267 91.26956 27384 ft 313 kts 255°
2026-05-08 01:44 55.98859 91.23127 27647 ft 317 kts 269°
2026-05-08 01:45 55.99047 91.19193 27904 ft 322 kts 283°
2026-05-08 01:45 55.99650 91.15303 28169 ft 330 kts 286°
2026-05-08 01:45 56.00280 91.11331 28426 ft 337 kts 285°
2026-05-08 01:45 56.00922 91.07272 28695 ft 343 kts 285°
2026-05-08 01:46 56.01569 91.03158 29059 ft 346 kts 285°
2026-05-08 01:46 56.02219 90.99010 29478 ft 347 kts 285°
2026-05-08 01:46 56.02866 90.94872 29890 ft 348 kts 285°
2026-05-08 01:46 56.03518 90.90685 30286 ft 349 kts 285°
2026-05-08 01:47 56.04169 90.86495 30648 ft 351 kts 285°
2026-05-08 01:47 56.04391 90.85060 30766 ft 351 kts 285°